Location: Newark
(43.6583°N, 1.6617°E)
Time: 08:12:59
(UTC+00:00)

Transit 4A - Pass Details

Date: 25 August 2019
Orbit: 865 x 980 km, 66.8° (Epoch: 18 September)

Event Time Altitude Azimuth Distance (km) Brightness Sun altitude
Rises 20:08:04 0° 282° (WNW) 3,682 12.4 -15.2°
Reaches altitude 10° 20:12:33 10° 311° (NW) 2,730 11.7 -15.8°
Maximum altitude 20:15:07 12° 335° (NNW) 2,543 11.0 -16.2°
Drops below altitude 10° 20:17:42 10° 359° (N) 2,716 10.8 -16.6°
Sets 20:22:08 0° 28° (NNE) 3,643 11.1 -17.3°
